This demonstration page uses our WeatherBlox Daily Observations layout. Learn more.

Left ArrowRight Arrow

44.8408, -93.29828

Hourly Observations for September 20, 2017

Temp ( °F °C ) Dew Point ( °F °C ) Humidity (%) Winds ( mph kmh ) Pressure ( in mb ) Visibility ( mi km ) Precip ( " mm )
12:53 am 00:53 Cloudy 72 22.2 65 18.3 79 79 SE 15 24 29.63 1004 10 16 0.00 0.00
1:12 am 01:12 Cloudy 71 21.7 65 18.3 81 81 SE 14 22 29.62 1003 10 16 0.00 0.00
1:38 am 01:38 Cloudy 71 21.7 65 18.3 81 81 SE 17 28 29.59 1002 10 16 0.00 0.00
1:53 am 01:53 Cloudy 71 21.7 65 18.3 81 81 SSE 15 24 29.60 1003 10 16 0.00 0.00
2:40 am 02:40 Cloudy with Thunderstorms 72 22.2 66 18.9 82 82 SE 15 24 29.56 1001 10 16 0.00 0.03
2:53 am 02:53 Cloudy with Thunderstorms 73 22.8 66 18.9 79 79 S 10 17 29.61 1003 10 16 0.00 0.03
3:46 am 03:46 Cloudy 72 22.2 68 20 87 87 S 10 17 29.59 1002 10 16 0.04 1.02
3:53 am 03:53 Cloudy 72 22.2 68 20 87 87 S 13 20 29.61 1003 10 16 0.04 1.02
4:53 am 04:53 Mostly Cloudy 71 21.7 68 20 90 90 SSE 7 11 29.59 1002 10 16 0.00 0.00
5:38 am 05:38 Mostly Cloudy 71 21.7 68 20 90 90 SSE 7 11 29.56 1001 10 16 0.00 0.00
5:53 am 05:53 Cloudy 71 21.7 68 20 90 90 SSE 9 15 29.59 1002 10 16 0.00 0.00
6:53 am 06:53 Cloudy 71 21.7 68 20 90 90 SSE 10 17 29.60 1003 10 16 0.00 0.00
7:53 am 07:53 Mostly Cloudy 70 21.1 68 20 93 93 SSW 7 11 29.63 1003 10 16 0.00 0.00
8:05 am 08:05 Mostly Cloudy 70 21.1 67 19.4 90 90 SSW 6 9 29.62 1003 10 16 0.00 0.00
8:39 am 08:39 Mostly Cloudy 69 20.6 65 18.3 87 87 WSW 17 28 29.65 1004 10 16 0.00 0.00
8:53 am 08:53 Mostly Cloudy 68 20 65 18.3 90 90 WSW 10 17 29.67 1005 10 16 0.00 0.00
9:53 am 09:53 Mostly Cloudy 69 20.6 63 17.2 81 81 W 9 15 29.70 1006 10 16 0.00 0.00
10:09 am 10:09 Partly Cloudy 71 21.7 62 16.7 73 73 W 10 17 29.68 1005 10 16 0.00 0.00
10:53 am 10:53 Mostly Sunny 71 21.7 60 15.6 68 68 W 12 19 29.73 1007 10 16 0.00 0.00
11:53 am 11:53 Partly Cloudy 72 22.2 58 14.4 61 61 WNW 13 20 29.76 1008 10 16 0.00 0.00
12:53 pm 12:53 Mostly Sunny 74 23.3 58 14.4 57 57 NW 9 15 29.78 1008 10 16 0.00 0.00
1:53 pm 13:53 Sunny 75 23.9 56 13.3 52 52 NNW 13 20 29.79 1009 10 16 0.00 0.00
2:53 pm 14:53 Sunny 75 23.9 53 11.7 46 46 WNW 14 22 29.81 1009 10 16 0.00 0.00
3:53 pm 15:53 Mostly Sunny 75 23.9 52 11.1 45 45 NW 9 15 29.82 1010 10 16 0.00 0.00
4:53 pm 16:53 Sunny 74 23.3 52 11.1 46 46 WSW 8 13 29.83 1010 10 16 0.00 0.00
5:53 pm 17:53 Sunny 73 22.8 50 10 44 44 W 7 11 29.84 1010 10 16 0.00 0.00
6:53 pm 18:53 Sunny 70 21.1 49 9.4 47 47 WNW 6 9 29.85 1011 10 16 0.00 0.00
7:53 pm 19:53 Clear 68 20 51 10.6 55 55 NW 7 11 29.86 1011 10 16 0.00 0.00
8:53 pm 20:53 Clear 66 18.9 52 11.1 61 61 NW 5 7 29.88 1012 10 16 0.00 0.00
9:53 pm 21:53 Clear 63 17.2 53 11.7 70 70 NW 6 9 29.91 1013 10 16 0.00 0.00
10:53 pm 22:53 Clear 61 16.1 52 11.1 72 72 Calm 29.93 1014 10 16 0.00 0.00
11:53 pm 23:53 Clear 62 16.7 52 11.1 70 70 Calm 29.96 1015 10 16 0.00 0.00

Powered by AerisWeather